| time (UTC) | temp F | wind direction | speed MPH | gust MPH | rain 1hr in | rain 24hr in | rain mn in | humidity % | barometer mb |
| 20260504190010 | 55 | 269 | 1.0 | 3.0 | 0.00 | 0.24 | 0.24 | 92 | 1011.1 |
| 20260504184621 | 56 | 358 | 1.0 | 3.0 | 0.00 | 0.24 | 0.24 | 90 | 1011.1 |
| 20260504183023 | 57 | 299 | 0.0 | 2.0 | 0.00 | 0.24 | 0.24 | 90 | 1010.9 |
| 20260504181643 | 58 | 347 | 0.0 | 4.0 | 0.01 | 0.24 | 0.24 | 85 | 1010.7 |
| 20260504174543 | 59 | 80 | 2.0 | 5.0 | 0.15 | 0.24 | 0.24 | 89 | 1010.7 |
| 20260504171626 | 58 | 161 | 2.0 | 6.0 | 0.15 | 0.23 | 0.23 | 89 | 1010.6 |
| 20260504140112 | 59 | 33 | 5.0 | 12.0 | 0.00 | 0.05 | 0.05 | 91 | 1010.5 |
| 20260504130151 | 61 | 129 | 3.0 | 8.0 | 0.00 | 0.05 | 0.05 | 83 | 1010.5 |
| 20260504120107 | 60 | 137 | 4.0 | 8.0 | 0.00 | 0.05 | 0.05 | 89 | 1011.3 |
| 20260504090125 | 58 | 97 | 4.0 | 7.0 | 0.00 | 0.28 | 0.00 | 86 | 1012.5 |
| 20260504081654 | 58 | 115 | 4.0 | 7.0 | 0.00 | 0.42 | 0.00 | 88 | 1012.3 |
| 20260504043106 | 54 | 265 | 0.0 | 2.0 | 0.00 | 0.63 | 0.00 | 92 | 1012.1 |
| 20260504041520 | 54 | 269 | 1.0 | 2.0 | 0.00 | 0.63 | 0.00 | 92 | 1012.1 |
| 20260504040154 | 54 | 269 | 0.0 | 0.0 | 0.00 | 0.63 | 0.00 | 93 | 1012.3 |
| 20260504034538 | 54 | 269 | 0.0 | 2.0 | 0.00 | 0.63 | 0.00 | 92 | 1012.4 |
| 20260504033124 | 54 | 269 | 0.0 | 2.0 | 0.00 | 0.63 | 0.00 | 92 | 1012.3 |
| 20260504031614 | 54 | 239 | 1.0 | 2.0 | 0.00 | 0.63 | 0.00 | 92 | 1012.6 |
| 20260504024551 | 54 | 267 | 1.0 | 2.0 | 0.00 | 0.65 | 0.00 | 93 | 1012.6 |
| 20260504023135 | 54 | 267 | 1.0 | 4.0 | 0.00 | 0.65 | 0.00 | 93 | 1012.7 |
| 20260504021631 | 54 | 248 | 0.0 | 3.0 | 0.00 | 0.65 | 0.00 | 94 | 1012.1 |
| 20260504020115 | 54 | 274 | 0.0 | 2.0 | 0.00 | 0.65 | 0.00 | 94 | 1012.5 |
| 20260504014536 | 54 | 256 | 0.0 | 2.0 | 0.00 | 0.65 | 0.00 | 94 | 1012.7 |
| 20260504013135 | 54 | 256 | 0.0 | 2.0 | 0.00 | 0.65 | 0.00 | 94 | 1013.0 |
| 20260504011515 | 53 | 247 | 0.0 | 3.0 | 0.00 | 0.65 | 0.00 | 93 | 1012.9 |
| 20260504010156 | 53 | 258 | 1.0 | 3.0 | 0.00 | 0.65 | 0.00 | 93 | 1013.0 |
| 20260504004516 | 53 | 251 | 1.0 | 4.0 | 0.00 | 0.70 | 0.00 | 93 | 1013.1 |
| 20260504003047 | 54 | 279 | 1.0 | 4.0 | 0.00 | 0.70 | 0.00 | 93 | 1013.4 |
| 20260504001521 | 54 | 266 | 2.0 | 4.0 | 0.00 | 0.70 | 0.00 | 92 | 1013.4 |
| 20260504000141 | 54 | 281 | 0.0 | 2.0 | 0.00 | 0.70 | 0.00 | 92 | 1013.4 |
| 20260503234622 | 55 | 281 | 1.0 | 2.0 | 0.00 | 0.75 | 0.00 | 92 | 1013.4 |
| 20260503233102 | 56 | 311 | 0.0 | 2.0 | 0.00 | 0.75 | 0.00 | 92 | 1013.4 |
| 20260503231606 | 56 | 311 | 1.0 | 2.0 | 0.00 | 0.75 | 0.00 | 92 | 1013.6 |
| 20260503230105 | 57 | 311 | 0.0 | 2.0 | 0.00 | 0.75 | 0.00 | 92 | 1013.7 |
| 20260503224552 | 57 | 9 | 0.0 | 2.0 | 0.00 | 0.76 | 0.00 | 92 | 1013.9 |
| 20260503223030 | 57 | 9 | 0.0 | 2.0 | 0.00 | 0.76 | 0.00 | 91 | 1014.1 |
| 20260503221607 | 57 | 9 | 0.0 | 2.0 | 0.00 | 0.76 | 0.00 | 91 | 1014.1 |
| 20260503220004 | 57 | 9 | 0.0 | 2.0 | 0.00 | 0.76 | 0.76 | 90 | 1013.8 |
| 20260503214557 | 57 | 9 | 0.0 | 2.0 | 0.00 | 0.76 | 0.76 | 90 | 1013.9 |
| 20260503211559 | 57 | 9 | 0.0 | 1.0 | 0.00 | 0.76 | 0.76 | 90 | 1013.8 |
| 20260503210129 | 57 | 9 | 1.0 | 2.0 | 0.00 | 0.76 | 0.76 | 90 | 1013.6 |
| 20260503204542 | 57 | 9 | 0.0 | 3.0 | 0.00 | 0.76 | 0.76 | 90 | 1013.6 |
| 20260503201649 | 57 | 49 | 1.0 | 3.0 | 0.00 | 0.76 | 0.76 | 91 | 1013.5 |
| 20260503200010 | 57 | 15 | 2.0 | 5.0 | 0.00 | 0.76 | 0.76 | 91 | 1013.4 |
| 20260503194516 | 57 | 29 | 1.0 | 4.0 | 0.00 | 0.76 | 0.76 | 91 | 1013.6 |
| 20260503193057 | 57 | 46 | 1.0 | 3.0 | 0.00 | 0.76 | 0.76 | 90 | 1013.5 |